Tracking 19212 objects as of 16-Jul-2018
HD Live streaming from Space Station
objects crossing your sky now

FENGYUN 1C DEB

Track FENGYUN 1C DEB now!
10-day predictions


NORAD ID: 31427
Int'l Code: 1999-025BTP
Perigee: 769.1 km
Apogee: 847.3 km
Inclination: 98.8 °
Period: 100.9 minutes
Semi major axis: 7179 km
RCS: 0.0039 m2 (small)
Launch date: May 10, 1999
Source: People's Republic of China (PRC)
Launch site: Taiyaun Space Center, China (TSC)

Note: This is SATELLITE DEBRIS
aabbcc
Your satellite tracking list
Your tracking list is empty




NASA's NSSDC Master Catalog

Two Line Element Set (TLE):
1 31427U 99025BTP 18196.60143339  .00000539  00000-0  23512-3 0  9999
2 31427  98.8125 244.2656 0054510  82.7577  69.6613 14.27217442581135
Source of the keplerian elements: AFSPC